TimeCDT,TemperatureF,Dew PointF,Humidity,Sea Level PressureIn,VisibilityMPH,Wind Direction,Wind SpeedMPH,Gust SpeedMPH,PrecipitationIn,Events,Conditions,WindDirDegrees,DateUTC
12:55 AM,48.9,32.2,52,29.65,10.0,WSW,8.1,-,N/A,,Partly Cloudy,240,2012-10-18 05:55:00
1:55 AM,49.1,29.7,47,29.65,10.0,WSW,10.4,-,N/A,,Clear,240,2012-10-18 06:55:00
2:55 AM,48.4,30.4,50,29.65,10.0,WSW,10.4,-,N/A,,Clear,240,2012-10-18 07:55:00
3:55 AM,48.2,29.7,49,29.65,10.0,WSW,10.4,-,N/A,,Clear,240,2012-10-18 08:55:00
4:55 AM,47.5,29.3,49,29.65,10.0,WSW,11.5,-,N/A,,Clear,250,2012-10-18 09:55:00
5:55 AM,45.9,29.3,52,29.66,10.0,WSW,10.4,-,N/A,,Clear,240,2012-10-18 10:55:00
6:55 AM,43.9,29.8,58,29.67,10.0,WSW,10.4,-,N/A,,Clear,240,2012-10-18 11:55:00
7:55 AM,44.2,29.5,56,29.66,10.0,WSW,10.4,-,N/A,,Clear,250,2012-10-18 12:55:00
8:55 AM,48.7,29.7,48,29.66,10.0,West,16.1,23.0,N/A,,Clear,260,2012-10-18 13:55:00
9:55 AM,52.2,28.9,41,29.65,10.0,West,17.3,27.6,N/A,,Clear,260,2012-10-18 14:55:00
10:55 AM,54.3,29.7,39,29.64,10.0,West,24.2,32.2,N/A,,Mostly Cloudy,270,2012-10-18 15:55:00
11:55 AM,56.3,28.8,35,29.64,10.0,West,23.0,28.8,N/A,,Overcast,270,2012-10-18 16:55:00
12:55 PM,57.6,29.3,34,29.63,10.0,West,27.6,32.2,N/A,,Scattered Clouds,280,2012-10-18 17:55:00
1:55 PM,58.3,29.3,33,29.62,10.0,West,19.6,29.9,N/A,,Overcast,260,2012-10-18 18:55:00
2:55 PM,58.5,28.2,32,29.60,10.0,West,23.0,35.7,N/A,,Overcast,280,2012-10-18 19:55:00
3:55 PM,57.4,28.4,33,29.62,10.0,WNW,13.8,20.7,N/A,,Overcast,290,2012-10-18 20:55:00
4:55 PM,57.0,29.8,36,29.63,10.0,WNW,15.0,-,N/A,,Overcast,290,2012-10-18 21:55:00
5:55 PM,55.6,30.7,39,29.65,10.0,WNW,27.6,33.4,N/A,,Overcast,290,2012-10-18 22:55:00
6:27 PM,53.6,35.6,51,29.66,10.0,WNW,23.0,31.1,N/A,,Light Drizzle,300,2012-10-18 23:27:00
6:38 PM,51.8,35.6,54,29.66,10.0,West,18.4,27.6,N/A,,Overcast,280,2012-10-18 23:38:00
6:55 PM,53.1,35.1,50,29.65,10.0,West,16.1,28.8,0.00,,Mostly Cloudy,280,2012-10-18 23:55:00
7:55 PM,52.9,34.9,50,29.65,10.0,West,19.6,31.1,N/A,,Overcast,280,2012-10-19 00:55:00
8:55 PM,52.3,35.8,53,29.66,10.0,West,17.3,32.2,N/A,,Overcast,280,2012-10-19 01:55:00
9:55 PM,52.7,36.0,53,29.65,10.0,West,15.0,27.6,N/A,,Overcast,280,2012-10-19 02:55:00
10:45 PM,51.8,37.4,58,29.65,10.0,NW,17.3,27.6,N/A,,Light Drizzle,310,2012-10-19 03:45:00
10:55 PM,50.9,38.8,63,29.65,10.0,WNW,19.6,28.8,0.00,,Light Drizzle,300,2012-10-19 03:55:00
10:57 PM,50.0,37.4,62,29.65,10.0,NW,23.0,38.0,N/A,,Overcast,310,2012-10-19 03:57:00
11:12 PM,50.0,37.4,62,29.65,10.0,WNW,23.0,34.5,N/A,,Overcast,300,2012-10-19 04:12:00
11:55 PM,50.4,38.1,63,29.65,10.0,WNW,18.4,31.1,0.00,,Overcast,300,2012-10-19 04:55:00